Rochester, NY

11:41 PM EDT on May 21, 2018 (GMT -0400)
Greater Rochester International

Weather History for KROC - October, 2012

Change the Weather History Date:

Thursday, October 25, 2012

  Actual Average Record
Temperature  
Mean Temperature 68 °F 48 °F  
Max Temperature 81 °F 56 °F 83 °F (1963)
Min Temperature 55 °F 39 °F 19 °F (1879)
Degree Days  
Heating Degree Days 0 17  
Month to date heating degree days 289 341  
Since 1 July heating degree days 441 522  
Cooling Degree Days 3 0  
Month to date cooling degree days 5 0  
Year to date cooling degree days 802 534  
Growing Degree Days 18 (Base 50)    
Moisture  
Dew Point 55 °F    
Average Humidity 70    
Maximum Humidity 100    
Minimum Humidity 39    
Precipitation  
Precipitation 0.00 in 0.09 in 2.94 in (1980)
Month to date precipitation 2.63 2.20  
Year to date precipitation 27.57 28.18  
Snow  
Snow 0.00 in 0.00 in 2.50 in (1930)
Month to date snowfall 0.0 0.0  
Since 1 July snowfall 0.0 0.0  
Since 1 September snowfall 0.0 0.0  
Snow Depth 0.00 in    
Sea Level Pressure  
Sea Level Pressure 30.06 in    
Wind  
Wind Speed 6 mph (South)    
Max Wind Speed 17 mph    
Max Gust Speed 23 mph    
Visibility 7 miles    
Events      
T = Trace of Precipitation, MM = Missing Value Source: NWS Daily Summary

Daily Weather History Graph

Daily Weather History Graph

Search for Another Location

Airport or City:

Astronomy

Oct. 25, 2012 Rise Set
Actual Time 7:37 AM EDT 6:11 PM EDT
Civil Twilight 7:07 AM EDT 6:40 PM EDT
Nautical Twilight 6:34 AM EDT 7:13 PM EDT
Astronomical Twilight 6:01 AM EDT 7:46 PM EDT
Moon 4:01 PM EDT (10/25) 3:25 AM EDT (10/25)
Length of Visible Light 11h 32m
Length of Day
10h 34m
Waxing Gibbous, 84% of the Moon is Illuminated
Oct 25
Waxing Gibbous
Oct 29
Full
Nov 6
Last Quarter
Nov 13
New
Nov 20
First Quarter

Hourly Weather History & Observations

Time (EDT) Temp. Heat Index Dew Point Humidity Pressure Visibility Wind Dir Wind Speed Gust Speed Precip Events Conditions
12:54 AM 57.0 °F - 55.9 °F 96% 30.11 in 5.0 mi SE 3.5 mph - N/A   Overcast
1:54 AM 57.0 °F - 55.9 °F 96% 30.10 in 4.0 mi ESE 3.5 mph - N/A   Overcast
2:54 AM 57.0 °F - 55.9 °F 96% 30.09 in 4.0 mi Calm Calm - N/A   Overcast
3:54 AM 57.9 °F - 55.9 °F 93% 30.09 in 5.0 mi Calm Calm - N/A   Overcast
4:54 AM 55.9 °F - 55.0 °F 97% 30.09 in 2.0 mi Calm Calm - N/A   Scattered Clouds
5:03 AM 55.4 °F - 53.6 °F 94% 30.08 in 1.5 mi Calm Calm - N/A   Partly Cloudy
5:45 AM 55.4 °F - 55.4 °F 100% 30.09 in 3.0 mi Calm Calm - N/A   Mostly Cloudy
5:54 AM 55.0 °F - 54.0 °F 96% 30.09 in 3.0 mi Calm Calm - N/A   Mostly Cloudy
6:09 AM 55.4 °F - 53.6 °F 94% 30.09 in 2.0 mi Calm Calm - N/A   Partly Cloudy
6:54 AM 55.0 °F - 54.0 °F 96% 30.09 in 3.0 mi Calm Calm - N/A   Mostly Cloudy
7:54 AM 55.9 °F - 55.9 °F 100% 30.10 in 5.0 mi Calm Calm - N/A   Mostly Cloudy
8:54 AM 57.9 °F - 57.0 °F 97% 30.11 in 7.0 mi South 3.5 mph - N/A   Scattered Clouds
9:54 AM 64.9 °F - 57.9 °F 78% 30.11 in 10.0 mi SSW 6.9 mph - N/A   Partly Cloudy
10:54 AM 70.0 °F - 57.0 °F 63% 30.10 in - North - - N/A   Partly Cloudy
11:54 AM 73.9 °F - 57.0 °F 55% 30.09 in 10.0 mi SSW 11.5 mph - N/A   Partly Cloudy
12:54 PM 78.1 °F - 55.0 °F 45% 30.06 in 10.0 mi SSW 9.2 mph - N/A   Partly Cloudy
1:54 PM 79.0 °F - 54.0 °F 42% 30.04 in 10.0 mi SSW 11.5 mph 20.7 mph N/A   Partly Cloudy
2:54 PM 80.1 °F 80.0 °F 54.0 °F 40% 30.03 in 10.0 mi SSW 12.7 mph 18.4 mph N/A   Clear
3:54 PM 81.0 °F 80.7 °F 55.0 °F 41% 30.01 in 10.0 mi South 8.1 mph - N/A   Clear
4:54 PM 80.1 °F 80.2 °F 55.9 °F 43% 30.00 in 10.0 mi South 4.6 mph - N/A   Clear
5:54 PM 80.1 °F 80.0 °F 54.0 °F 40% 29.99 in 10.0 mi Calm Calm - N/A   Clear
6:54 PM 73.0 °F - 55.9 °F 55% 30.00 in 10.0 mi ESE 6.9 mph - N/A   Clear
7:54 PM 71.1 °F - 55.9 °F 59% 30.00 in 10.0 mi SSE 6.9 mph - N/A   Clear
8:54 PM 70.0 °F - 55.9 °F 61% 30.00 in 10.0 mi South 10.4 mph - N/A   Clear
9:54 PM 66.9 °F - 55.9 °F 68% 30.01 in 10.0 mi South 8.1 mph - N/A   Clear
10:54 PM 66.9 °F - 55.0 °F 66% 30.01 in 10.0 mi South 12.7 mph - N/A   Clear
11:54 PM 64.9 °F - 54.0 °F 68% 30.01 in 10.0 mi South 10.4 mph 19.6 mph N/A   Clear